Wetbulb
59.76 59.78 59.72 59.69 59.91 60.10 60.15 60.41 60.47 60.45 60.67 60.71 60.66 60.92 61.73 62.25 61.77 60.48 56.11 61.94 73.70 78.36 77.59 73.70 73.95 74.14 70.11 65.54 67.30 69.24 59.37 55.37 56.50 57.36 58.92 62.03 60.82 65.39 66.95 64.91 65.60 66.64 65.47 66.64 69.29
59.52 59.52 59.39 59.34 59.47 59.65 59.73 59.86 59.99 60.01 60.07 60.07 60.17 60.87 61.87 61.79 58.64 56.89 65.94 73.99 78.64 77.72 72.82 69.84 68.56 72.25 69.86 68.01 66.85 63.37 56.97 58.53 61.29 61.37 59.83 61.15 62.15 63.59 63.44 63.17 62.80 64.72 66.93 67.96 69.05
59.20 59.09 58.93 58.99 59.24 59.33 59.47 59.42 59.53 59.50 59.56 59.78 59.98 60.86 62.09 61.10 54.05 52.65 75.95 77.08 77.97 75.84 73.18 70.89 69.22 70.45 67.04 66.47 65.57 65.01 58.19 60.13 62.35 63.48 63.23 61.44 62.29 64.33 62.51 60.21 62.10 62.89 64.81 66.63 67.32
58.85 58.75 58.83 58.99 59.04 58.98 59.06 59.08 58.96 58.97 59.10 59.45 60.14 61.19 62.50 57.21 45.52 62.87 77.81 77.92 77.69 73.57 71.45 70.13 68.44 65.96 64.70 63.73 66.39 60.59 63.28 62.61 64.49 65.73 63.65 62.45 63.79 62.27 63.29 62.78 65.20 65.92 66.74 66.80 66.07
59.01 58.88 58.87 58.79 58.63 58.68 58.74 58.69 58.50 58.31 58.68 59.06 60.19 61.52 58.36 50.33 53.09 73.43 79.17 77.98 76.04 72.38 69.60 68.62 66.42 66.00 60.13 63.31 63.50 62.73 60.06 63.08 64.74 64.20 63.04 64.02 62.56 62.39 63.07 64.89 66.16 66.81 66.95 66.21 66.24
58.52 58.40 58.22 58.34 58.62 58.73 58.63 58.23 58.06 57.84 58.34 59.14 60.12 62.25 54.39 46.10 53.97 74.69 76.01 74.49 72.30 70.15 68.63 67.54 65.49 66.18 62.16 60.75 58.55 61.21 59.66 61.77 63.48 62.55 62.78 61.09 61.06 62.80 63.33 65.29 64.95 65.75 65.36 65.70 65.78
58.04 57.91 57.90 58.04 58.16 58.30 58.02 57.69 57.04 57.48 58.16 59.11 60.49 62.78 56.77 52.09 62.14 70.38 72.26 69.54 70.70 68.27 64.42 66.10 65.04 62.01 60.92 59.50 63.29 61.18 56.27 57.93 59.20 60.89 61.76 61.81 59.07 59.50 63.70 64.60 63.60 64.35 64.33 64.15 64.71
57.81 57.62 57.64 57.61 57.71 57.57 57.20 56.81 56.54 57.80 58.48 59.81 61.56 59.05 50.57 58.25 60.96 64.25 65.05 60.60 63.81 67.80 63.48 63.93 65.17 60.73 60.09 61.97 62.43 59.17 57.26 52.84 60.08 61.24 62.31 58.53 52.38 61.38 63.99 63.46 62.23 63.57 63.56 62.99 63.15
57.25 57.15 57.15 57.02 56.79 56.52 55.81 56.14 57.55 59.08 60.58 62.30 57.30 53.93 51.89 62.90 57.97 58.81 62.34 60.33 60.78 59.57 59.02 65.45 61.76 57.22 59.51 57.08 54.42 55.24 50.74 53.70 57.19 61.58 61.79 58.52 55.81 61.99 63.67 62.60 61.76 62.21 62.49 62.68 62.47
56.84 56.65 56.61 56.42 56.07 55.36 55.01 55.69 56.80 60.30 60.79 61.49 62.56 51.36 51.39 52.48 56.84 55.99 58.84 61.26 57.42 58.61 59.07 57.77 55.07 52.58 54.44 52.51 47.85 51.22 53.40 55.18 53.32 58.01 60.26 58.05 57.70 60.75 62.64 62.24 61.60 61.95 62.29 62.40 62.32
56.73 56.35 56.12 55.87 55.32 54.38 52.23 52.00 50.40 49.75 56.67 52.72 51.51 50.50 52.66 55.94 57.55 55.96 54.96 54.54 53.88 54.66 52.02 54.42 52.39 50.36 52.99 56.16 56.59 56.40 53.94 56.27 57.66 59.58 58.91 58.91 58.81 60.07 61.24 61.05 60.76 60.61 61.72 62.55 63.00
56.52 55.99 55.89 55.46 54.46 53.89 49.43 49.77 52.79 51.53 45.76 53.47 56.20 56.43 55.48 56.87 54.28 55.96 54.98 52.10 49.65 47.30 52.24 50.92 49.31 55.00 55.99 55.49 57.39 55.41 53.55 55.57 58.07 59.47 58.78 58.23 58.18 59.84 61.44 61.20 60.94 60.34 60.32 61.47 62.88
56.03 55.62 55.25 54.40 53.48 51.55 49.70 49.22 51.27 48.48 46.35 50.87 52.66 54.37 54.53 56.53 53.78 54.36 53.11 50.16 48.20 47.10 50.16 48.77 51.58 57.01 54.77 53.41 53.35 52.60 52.11 53.43 55.20 58.55 59.60 56.99 55.05 56.06 60.90 61.70 61.69 61.59 62.05 61.42 61.68
55.65 55.40 54.48 53.11 50.06 48.64 51.38 50.30 53.08 49.78 42.56 48.40 49.08 52.63 53.28 54.75 50.68 57.53 52.19 50.64 48.32 47.83 49.35 49.45 53.59 55.42 52.02 53.93 54.49 47.52 56.77 57.79 56.80 53.64 48.20 55.90 46.53 52.24 56.70 56.80 59.16 60.72 60.42 62.30 61.89
55.42 54.89 53.33 52.39 45.36 48.97 51.60 52.53 53.28 52.49 37.05 51.68 48.45 54.34 50.78 51.28 49.91 50.96 53.17 50.76 47.76 48.72 47.79 47.51 48.37 49.93 50.58 54.27 56.66 53.62 58.71 56.99 56.84 52.94 50.61 52.73 48.49 51.27 55.08 54.91 58.04 59.96 60.55 62.18 63.02
54.67 53.97 52.98 49.50 46.45 50.23 52.08 51.64 50.58 44.06 39.62 49.37 49.62 47.89 47.88 46.79 48.63 49.90 51.34 50.97 50.53 47.96 45.46 47.38 49.00 48.84 48.62 51.48 57.90 58.27 55.31 53.72 51.94 49.82 44.61 49.24 49.12 48.81 52.03 55.65 57.71 60.51 61.38 62.20 63.35
53.27 52.18 51.09 51.39 46.19 50.69 51.07 48.78 41.52 36.87 48.38 46.83 45.79 47.40 44.87 44.60 46.32 48.47 46.84 44.36 44.31 40.08 39.80 44.94 45.22 45.89 48.26 43.76 46.56 54.19 49.11 42.38 42.60 42.89 43.48 47.06 48.97 52.13 55.09 58.21 59.82 59.32 60.61 61.87 63.51
51.64 50.97 50.40 50.72 49.02 51.74 47.68 43.74 36.89 44.85 44.30 47.06 47.71 46.20 45.13 44.79 43.80 45.09 44.46 43.52 43.64 42.13 38.66 39.69 38.89 44.25 46.86 45.92 44.32 51.63 48.31 43.60 39.13 38.42 42.19 45.43 45.49 50.92 56.97 60.39 59.54 60.58 59.91 61.76 63.02
50.87 46.31 47.06 50.22 51.68 50.08 45.03 36.27 37.05 41.11 45.73 46.60 46.51 44.52 43.81 46.07 45.58 43.93 43.46 43.12 45.00 43.21 42.02 36.62 38.57 44.21 46.67 47.12 46.90 42.69 44.13 44.30 38.36 35.79 41.54 45.05 47.88 53.84 55.26 56.14 57.72 58.06 60.31 61.28 62.70
45.18 45.32 49.45 53.36 52.92 45.97 41.44 37.50 39.78 45.23 46.93 45.70 41.71 44.42 41.08 44.10 44.62 41.27 41.75 45.26 46.14 45.76 44.19 42.16 37.81 42.78 45.46 46.07 45.05 44.37 46.05 40.66 38.00 34.65 33.11 37.75 43.00 46.29 51.04 53.98 56.31 57.69 59.02 60.03 61.74
45.56 48.19 52.22 53.06 49.88 45.26 37.96 37.34 43.66 48.33 48.91 45.62 44.38 43.85 43.49 43.35 43.29 42.30 43.42 47.87 50.58 48.14 43.57 39.71 39.26 39.91 42.76 42.02 42.69 42.07 40.96 38.21 39.58 37.68 35.55 34.70 41.87 50.32 52.95 54.11 56.80 58.73 60.74 60.66 61.34
43.52 45.61 52.61 50.94 45.18 38.58 40.13 42.58 47.44 48.09 49.52 48.34 46.36 45.77 43.87 45.00 43.11 42.36 44.28 47.65 54.23 51.48 41.52 42.31 38.31 37.29 41.60 43.13 44.07 42.80 43.17 41.65 40.10 35.28 33.94 36.29 39.26 47.66 53.62 55.92 57.01 58.02 59.93 60.89 62.55
42.78 43.75 52.18 48.58 38.86 38.05 41.54 43.96 46.35 46.98 45.41 46.89 45.70 47.46 47.38 43.95 41.34 46.45 49.22 53.98 53.84 52.47 48.88 45.19 38.71 39.19 40.88 40.88 42.84 40.81 39.87 36.98 37.77 36.01 35.15 36.19 39.29 48.26 50.39 53.52 55.81 57.59 57.62 59.10 60.75
45.04 41.39 44.35 44.68 41.20 39.52 38.92 40.47 42.55 48.23 46.39 47.11 47.01 47.97 46.52 45.27 46.27 44.91 48.08 52.56 53.30 52.94 61.53 53.92 38.49 39.93 41.63 42.04 42.80 41.22 42.77 40.03 39.24 36.64 35.96 37.08 39.77 42.52 50.96 52.98 54.52 55.00 57.56 58.08 60.34
43.01 39.50 41.25 37.50 39.09 38.99 37.87 40.61 42.37 42.36 46.21 47.11 45.84 46.85 44.82 40.50 41.51 43.26 46.86 47.30 51.03 55.19 50.29 47.05 40.82 39.07 43.33 44.45 46.12 46.22 47.29 42.35 40.32 41.27 39.72 44.83 40.57 44.09 46.33 52.65 54.37 56.17 56.23 56.54 57.87
41.61 39.57 41.24 38.52 38.93 38.38 38.21 38.02 42.46 43.63 43.09 43.70 43.08 46.12 46.17 40.25 40.89 41.50 42.43 41.79 44.90 47.74 46.60 45.48 43.64 42.51 42.38 43.97 47.78 47.25 48.04 45.66 44.09 41.77 41.56 39.45 40.64 44.75 49.67 51.03 52.93 55.23 55.35 55.68 56.45
43.52 43.24 41.88 38.58 37.83 35.69 36.71 39.88 43.55 43.52 45.45 47.47 45.49 43.34 43.66 45.78 47.44 46.77 45.63 45.67 46.44 43.29 44.49 44.17 43.25 41.21 40.13 45.20 45.29 41.68 46.86 47.10 46.55 43.98 43.51 40.84 44.87 45.16 48.60 51.92 53.40 53.02 56.93 57.71 59.01
MSLP
1015.01 1014.46 1013.83 1013.28 1012.75 1012.14 1011.66 1011.10 1010.75 1010.31 1010.01 1009.65 1009.28 1008.84 1008.36 1007.78 1007.60 1007.82 1006.53 1004.01 1004.86 1005.56 1006.08 1006.39 1006.46 1006.75 1007.58 1007.94 1008.19 1007.99 1008.20 1008.04 1007.24 1007.20 1006.84 1007.20 1007.74 1008.53 1008.99 1009.76 1010.11 1010.49 1010.98 1011.47 1012.57
1014.92 1014.40 1013.81 1013.20 1012.64 1012.03 1011.45 1011.00 1010.54 1010.12 1009.65 1009.33 1009.00 1008.68 1008.20 1007.70 1007.30 1005.90 1003.32 1003.53 1004.53 1004.85 1005.49 1004.77 1005.19 1006.46 1007.05 1007.62 1007.90 1007.65 1007.75 1006.70 1005.88 1006.15 1006.37 1006.71 1007.31 1008.00 1008.83 1009.75 1010.03 1010.62 1011.06 1011.83 1012.65
1014.76 1014.31 1013.81 1013.19 1012.50 1011.94 1011.32 1010.64 1010.25 1009.95 1009.46 1008.99 1008.65 1008.40 1007.99 1007.72 1006.70 1003.65 1002.72 1003.22 1004.19 1004.37 1003.85 1003.99 1004.70 1006.08 1006.66 1007.05 1007.09 1006.96 1006.32 1005.11 1004.95 1005.18 1005.49 1006.30 1007.04 1007.61 1008.49 1009.51 1009.46 1010.10 1010.93 1011.87 1012.82
1014.61 1014.00 1013.57 1013.07 1012.40 1011.80 1011.22 1010.61 1009.84 1009.63 1009.24 1008.75 1008.32 1008.04 1007.67 1007.39 1005.51 1002.78 1002.55 1003.14 1003.97 1004.16 1004.54 1005.15 1005.92 1006.47 1006.57 1006.37 1005.60 1005.83 1004.98 1004.54 1004.50 1004.81 1005.39 1005.70 1006.51 1007.23 1007.82 1007.98 1008.51 1009.74 1010.19 1011.42 1012.49
1014.42 1013.78 1013.22 1012.68 1012.07 1011.44 1010.84 1010.29 1009.77 1009.23 1008.88 1008.54 1008.11 1007.81 1007.35 1006.64 1004.04 1002.63 1003.09 1003.85 1004.33 1004.34 1004.43 1004.84 1005.52 1005.83 1005.48 1004.83 1004.72 1004.86 1004.49 1004.28 1004.16 1004.49 1004.75 1005.36 1005.93 1006.55 1007.47 1008.03 1008.61 1009.72 1010.60 1011.10 1012.18
1014.31 1013.60 1012.91 1012.29 1011.58 1010.87 1010.32 1009.88 1009.42 1008.93 1008.53 1008.22 1008.04 1007.82 1007.23 1005.59 1002.14 1002.43 1003.13 1004.05 1004.06 1004.22 1004.51 1004.50 1004.23 1004.24 1004.16 1003.85 1003.66 1003.93 1004.05 1004.21 1004.42 1004.70 1004.93 1005.39 1006.13 1006.73 1007.62 1008.18 1009.13 1009.73 1010.55 1011.15 1011.59
1014.13 1013.37 1012.66 1011.86 1011.19 1010.39 1009.71 1009.21 1008.89 1008.43 1008.12 1007.91 1007.86 1007.64 1006.74 1003.58 1002.15 1002.35 1002.86 1003.39 1003.48 1003.41 1003.73 1003.40 1003.57 1003.82 1003.75 1003.79 1003.47 1003.79 1004.62 1004.81 1005.11 1005.05 1005.12 1005.55 1006.42 1006.74 1007.33 1008.23 1009.14 1009.97 1010.67 1011.33 1011.63
1013.88 1013.04 1012.35 1011.46 1010.61 1009.77 1009.03 1008.47 1008.10 1007.66 1007.49 1007.48 1007.65 1007.38 1005.40 1002.21 1002.11 1002.22 1002.51 1002.83 1003.24 1003.26 1003.06 1002.72 1003.08 1003.37 1003.58 1003.56 1003.88 1004.62 1005.37 1005.90 1006.10 1005.72 1005.97 1005.82 1007.12 1007.28 1007.80 1008.11 1009.20 1009.89 1010.47 1011.02 1011.39
1013.68 1012.74 1011.91 1010.99 1010.17 1009.26 1008.29 1007.64 1007.01 1006.77 1006.92 1007.11 1007.50 1006.88 1004.26 1001.92 1002.07 1001.54 1001.76 1002.14 1002.45 1002.88 1002.98 1002.70 1002.69 1003.57 1003.83 1004.46 1005.36 1005.81 1006.17 1006.66 1006.74 1006.48 1006.27 1006.50 1007.24 1007.36 1007.76 1008.74 1009.16 1009.57 1009.91 1010.36 1010.95
1013.50 1012.54 1011.60 1010.55 1009.61 1008.69 1007.87 1006.83 1006.72 1006.75 1007.15 1007.12 1006.61 1006.35 1003.51 1001.96 1001.38 1001.20 1001.45 1001.79 1002.19 1002.57 1002.80 1003.10 1003.56 1004.02 1004.74 1005.21 1005.78 1006.53 1006.75 1007.31 1007.16 1007.29 1006.81 1007.13 1007.35 1007.20 1007.59 1008.33 1009.14 1009.61 1009.57 1010.01 1010.25
1013.39 1012.44 1011.37 1010.24 1009.24 1008.34 1007.55 1006.74 1006.84 1006.77 1006.33 1005.23 1004.81 1003.93 1002.79 1001.72 1001.16 1000.98 1001.16 1001.89 1002.51 1002.86 1003.37 1003.53 1004.29 1004.57 1004.74 1004.73 1005.14 1005.93 1006.64 1007.35 1007.60 1007.55 1007.65 1007.40 1007.12 1007.41 1007.45 1008.06 1008.85 1009.40 1009.88 1009.44 1009.57
1013.18 1012.26 1011.21 1010.01 1009.05 1008.26 1007.96 1007.06 1006.69 1006.39 1005.43 1003.69 1003.31 1002.92 1002.16 1001.90 1002.13 1001.18 1000.99 1002.06 1002.64 1003.19 1003.74 1004.27 1004.28 1003.88 1004.12 1004.68 1005.25 1005.82 1006.82 1007.64 1007.88 1007.50 1007.60 1006.97 1006.99 1007.19 1007.69 1007.60 1007.87 1008.36 1008.84 1009.41 1009.01
1012.85 1011.91 1010.99 1009.69 1008.61 1007.99 1007.78 1006.37 1005.77 1005.57 1005.49 1002.99 1002.33 1001.89 1001.60 1001.77 1001.62 1000.90 1000.92 1001.70 1002.46 1003.43 1003.94 1004.23 1003.82 1003.52 1004.14 1004.24 1004.94 1005.54 1006.47 1007.29 1007.21 1007.33 1007.63 1007.65 1007.12 1007.41 1007.44 1007.30 1007.47 1007.56 1007.88 1008.27 1008.66
1012.78 1012.00 1011.13 1009.70 1008.62 1008.45 1006.91 1005.53 1005.27 1004.92 1005.19 1002.61 1001.63 1000.56 1000.81 1000.82 1000.81 1000.09 1000.34 1001.21 1002.26 1002.95 1004.02 1003.94 1003.43 1003.58 1003.79 1003.93 1004.34 1005.03 1005.42 1006.34 1007.11 1008.55 1008.24 1008.17 1008.06 1006.61 1006.43 1006.23 1006.37 1006.74 1006.93 1007.18 1007.64
1012.09 1011.70 1011.06 1011.06 1010.07 1008.65 1006.06 1005.23 1004.82 1004.80 1004.29 1001.56 1000.59 999.71 1000.04 1000.55 1000.06 999.99 999.95 1000.68 1001.77 1002.66 1003.52 1003.36 1003.09 1003.17 1003.37 1003.29 1003.79 1004.42 1004.84 1006.08 1007.83 1009.05 1009.38 1009.08 1009.14 1006.78 1006.10 1005.43 1005.18 1005.36 1005.72 1005.90 1006.20
1011.50 1011.13 1010.79 1010.48 1010.09 1006.98 1005.96 1005.42 1005.15 1005.66 1003.49 1001.01 1000.16 1000.08 1000.41 1000.30 1000.08 1000.02 1000.15 1000.37 1001.26 1002.57 1003.14 1003.01 1002.76 1002.68 1002.53 1002.94 1003.28 1004.30 1005.99 1007.51 1009.00 1009.73 1009.97 1009.19 1009.34 1006.77 1005.30 1003.80 1003.51 1003.77 1004.26 1004.58 1005.13
1010.62 1009.73 1010.07 1009.27 1007.78 1006.27 1005.92 1005.73 1006.50 1005.31 1003.12 1002.07 1001.21 1000.73 1000.40 1000.34 1000.33 1000.41 1000.81 1001.38 1002.04 1003.21 1003.71 1003.11 1002.85 1002.44 1002.14 1002.90 1003.47 1004.60 1006.81 1009.10 1010.54 1011.26 1010.49 1009.29 1009.03 1005.87 1003.05 1002.37 1002.39 1002.35 1002.63 1003.01 1003.96
1009.60 1008.40 1008.05 1007.58 1006.69 1006.34 1006.10 1006.56 1006.57 1005.12 1003.77 1002.51 1001.68 1000.94 1000.71 1000.68 1000.71 1000.88 1001.37 1001.94 1002.19 1002.77 1003.99 1003.97 1003.00 1002.14 1001.85 1002.14 1003.03 1004.32 1005.57 1007.78 1009.43 1010.86 1009.87 1009.10 1007.75 1004.00 1001.67 1000.95 1001.71 1002.06 1002.04 1002.44 1003.04
1008.83 1007.99 1007.69 1006.18 1006.28 1006.76 1006.73 1007.06 1006.19 1005.30 1004.20 1003.23 1002.03 1001.45 1001.30 1000.98 1000.81 1001.04 1001.57 1001.82 1001.85 1002.20 1003.06 1003.65 1002.56 1001.56 1001.16 1001.30 1002.23 1004.23 1005.30 1005.46 1007.91 1009.43 1009.15 1008.22 1005.93 1003.12 1001.40 1000.98 1001.11 1001.60 1001.84 1001.81 1002.27
1009.76 1008.68 1006.98 1005.81 1006.00 1006.38 1007.18 1007.40 1006.47 1005.23 1004.23 1003.54 1003.12 1002.57 1002.47 1001.88 1001.51 1001.35 1001.33 1001.13 1001.17 1001.15 1001.23 1002.38 1002.70 1001.33 1000.74 1000.92 1001.44 1002.18 1003.11 1005.39 1007.33 1008.55 1008.80 1007.66 1006.09 1003.53 1001.63 1001.33 1000.94 1001.06 1001.17 1001.21 1001.57
1009.80 1008.71 1006.99 1006.08 1006.10 1007.10 1008.26 1007.92 1006.48 1004.97 1004.31 1003.84 1003.39 1003.17 1002.85 1002.39 1002.04 1001.83 1001.60 1001.28 1001.31 1001.11 1001.43 1002.26 1002.58 1001.82 1001.08 1000.94 1001.06 1002.06 1002.79 1004.37 1005.74 1007.04 1007.62 1007.02 1005.36 1002.05 1001.20 1000.70 1000.59 1000.52 1000.60 1000.64 1000.78
1010.92 1009.43 1006.73 1006.26 1007.66 1009.28 1009.20 1008.27 1006.76 1005.51 1004.45 1003.97 1003.67 1003.34 1003.07 1002.87 1002.70 1002.52 1002.18 1001.85 1001.83 1001.54 1001.85 1001.53 1002.09 1002.22 1001.34 1000.18 1000.20 1000.51 1001.38 1002.71 1005.02 1006.61 1006.74 1005.75 1003.15 1000.58 1000.17 999.52 999.92 999.76 999.73 999.91 999.80
1012.45 1011.24 1007.69 1007.10 1009.64 1010.66 1009.91 1008.77 1007.66 1006.61 1005.68 1005.05 1004.61 1004.21 1003.60 1003.69 1003.78 1003.49 1003.16 1002.39 1002.32 1002.11 1002.39 1002.05 1002.03 1002.34 1001.26 1000.86 1000.18 1000.31 1000.95 1001.98 1002.92 1004.08 1005.40 1005.30 1002.66 1000.41 999.78 999.57 999.21 999.11 999.49 999.71 999.76
1013.01 1012.61 1011.00 1010.34 1011.55 1011.75 1011.50 1010.29 1008.85 1007.62 1006.94 1006.52 1005.98 1004.90 1004.99 1005.14 1004.71 1004.76 1004.10 1003.14 1002.87 1002.78 1002.23 1002.41 1002.38 1002.15 1001.29 1000.31 999.88 1000.10 1000.28 1001.11 1001.89 1003.65 1003.88 1003.39 1001.85 1000.63 999.64 999.00 998.87 998.66 998.59 999.10 999.29
1014.09 1015.18 1014.84 1013.91 1013.44 1013.24 1012.46 1011.49 1010.34 1009.24 1008.15 1007.39 1006.89 1006.70 1006.54 1006.47 1006.36 1005.99 1005.31 1004.59 1003.43 1003.18 1002.97 1003.23 1003.67 1002.64 1001.06 999.58 999.47 999.04 999.17 999.93 1000.83 1001.13 1002.36 1001.09 1001.13 999.82 999.07 997.98 998.20 997.85 998.15 998.82 999.32
1015.90 1016.28 1015.56 1015.18 1014.60 1013.93 1013.21 1012.79 1011.69 1010.88 1009.89 1009.01 1008.58 1007.79 1007.19 1007.29 1007.60 1007.26 1006.48 1005.42 1004.74 1003.90 1003.87 1003.88 1003.75 1003.09 1001.72 999.87 999.53 998.59 998.06 998.63 999.14 999.86 1000.15 999.91 999.41 997.93 997.19 997.52 997.75 997.77 997.86 998.22 998.51
1016.77 1016.60 1016.44 1016.08 1015.51 1014.93 1014.62 1013.81 1012.66 1012.06 1010.55 1009.88 1009.35 1008.61 1007.87 1007.52 1007.40 1007.01 1006.43 1005.66 1005.06 1005.09 1004.59 1004.33 1004.26 1004.13 1003.15 1001.40 1000.09 998.99 997.41 997.40 997.68 998.12 998.28 998.75 997.16 996.84 997.10 997.19 996.87 996.83 997.53 997.62 997.65
Wind_Speed
20 19 20 21 21 21 20 20 19 19 17 17 16 15 14 15 11 4 6 9 11 20 14 10 5 12 5 4 4 2 4 2 4 7 4 11 6 9 9 11 4 5 5 13 17
20 21 21 21 21 21 21 20 20 19 18 17 16 14 13 15 2 8 10 19 31 25 17 16 12 10 4 2 1 3 3 7 6 5 7 16 12 12 6 11 3 5 13 18 19
21 21 21 22 22 22 21 22 20 18 17 17 16 14 12 8 3 6 13 27 31 17 18 2 12 7 2 3 6 5 4 4 4 6 12 15 9 10 11 8 6 15 21 19 17
23 23 22 22 22 22 21 21 21 18 17 16 16 13 12 2 5 2 19 30 29 14 13 7 5 5 5 6 7 4 9 2 4 10 11 12 10 9 12 7 11 17 23 19 18
23 23 23 22 23 22 21 21 20 19 16 14 14 11 3 2 10 6 16 21 17 9 14 12 8 4 6 8 5 5 4 5 11 12 10 11 13 12 15 9 17 17 19 21 16
24 24 24 23 23 23 21 20 19 18 16 13 10 7 0 2 4 11 16 18 11 8 8 8 10 11 6 4 1 6 8 9 11 9 10 9 6 10 8 17 19 18 18 17 18
24 25 25 25 24 24 23 21 20 17 14 11 7 3 2 15 3 7 10 7 9 8 8 7 5 3 2 4 3 7 4 3 1 7 6 6 1 6 15 18 21 18 14 14 15
25 26 26 26 26 25 24 23 21 17 12 9 6 2 8 4 1 6 5 2 8 7 4 3 7 2 3 3 7 5 5 4 6 6 4 5 2 4 13 20 19 17 14 14 16
26 26 27 27 27 26 26 24 19 5 5 10 4 3 10 4 3 7 6 5 7 5 2 5 1 3 5 4 4 4 5 3 2 7 3 2 3 2 14 12 16 17 17 16 15
26 27 28 28 28 27 27 19 3 7 4 4 3 3 5 2 3 4 4 5 2 2 2 5 4 3 4 4 6 4 4 3 3 2 3 2 3 2 16 15 14 14 16 15 15
26 27 28 29 29 26 13 1 5 4 2 7 6 4 4 5 3 4 5 7 3 3 4 2 5 5 9 7 3 6 4 5 3 4 4 4 6 9 13 10 12 11 13 15 16
26 27 28 29 28 25 3 5 2 2 10 11 11 9 4 5 5 5 7 8 6 8 4 4 6 11 5 4 4 5 6 2 3 4 2 4 9 8 8 5 8 14 13 14 15
26 27 27 30 32 5 3 4 4 1 2 8 6 6 6 10 10 8 9 6 5 6 5 8 5 7 4 4 5 5 8 5 5 2 2 5 4 4 3 5 8 7 7 9 15
25 25 25 30 2 5 5 3 5 2 5 8 4 8 5 7 3 6 7 8 1 10 8 7 6 7 3 7 6 4 10 11 10 4 3 2 6 5 1 8 9 12 9 11 11
27 23 22 10 6 3 4 8 8 5 4 1 2 1 3 10 3 4 5 5 8 7 8 10 5 5 6 9 6 8 12 13 10 4 3 2 3 10 3 7 11 15 14 14 13
27 24 18 1 2 9 9 8 4 7 4 5 3 1 5 2 2 3 4 5 3 6 3 7 3 6 8 4 9 7 8 8 6 4 6 6 6 10 7 10 3 8 15 17 15
30 28 11 4 5 3 5 5 7 4 5 8 4 6 2 4 2 5 5 5 7 5 5 6 5 3 3 2 1 7 8 4 4 2 8 7 4 15 10 14 14 3 11 16 15
33 27 7 6 5 5 4 6 3 2 3 4 5 4 5 3 2 1 5 5 5 5 4 7 9 10 5 10 11 10 11 9 9 6 6 3 8 13 13 21 4 8 10 12 16
27 3 2 5 8 1 7 4 7 5 4 7 9 5 6 4 4 3 7 6 8 11 11 7 11 2 5 6 11 6 4 5 9 4 4 5 9 13 7 8 6 8 9 11 15
4 5 4 2 6 5 7 3 3 4 3 3 2 2 4 5 4 2 4 4 6 13 5 8 4 5 6 5 3 10 8 3 2 6 4 4 5 8 9 6 6 8 9 9 10
3 4 4 1 3 7 4 5 5 6 0 2 3 4 6 3 2 3 3 4 7 7 5 6 6 5 4 6 10 2 3 6 7 6 8 4 8 10 13 8 12 12 12 13 16
3 4 4 2 5 2 1 1 6 5 5 3 3 7 5 3 3 1 2 5 12 4 3 9 6 6 12 3 2 5 7 7 7 7 2 4 9 6 11 11 12 13 14 14 17
3 3 5 4 4 4 7 6 4 8 7 7 5 6 3 2 2 5 4 5 9 8 5 2 2 7 12 7 5 2 3 4 6 5 8 8 9 4 8 6 8 10 8 8 12
3 5 6 7 2 3 5 5 7 9 3 5 4 5 6 6 7 2 6 3 6 4 7 2 1 8 13 13 6 4 6 5 7 4 6 8 7 6 9 10 7 10 9 7 9
5 1 2 4 4 3 2 5 5 9 6 9 6 8 3 6 6 4 4 5 6 2 8 5 2 3 11 7 6 7 6 8 6 8 8 19 12 13 13 14 12 14 6 5 10
3 4 5 2 4 3 6 4 5 6 3 6 4 10 5 4 2 6 4 2 5 6 5 4 3 6 6 3 7 5 6 9 8 2 9 6 9 11 10 4 6 11 9 9 9
3 3 3 2 4 3 2 5 5 6 5 3 6 3 4 6 10 12 9 8 8 2 3 2 3 6 6 6 6 2 6 5 4 6 7 8 17 6 7 8 12 10 10 12 11
Wind_Direction
347 344 339 337 335 333 331 329 328 328 328 328 330 327 321 318 316 148 220 214 148 140 140 137 169 160 163 160 205 228 50 294 217 167 156 143 139 144 101 133 174 190 126 135 140
346 341 338 334 333 331 329 327 326 326 325 325 325 324 320 328 275 229 249 139 139 149 146 170 159 166 208 68 10 120 149 229 193 173 159 166 141 154 132 158 177 88 117 129 139
343 339 336 332 330 329 327 325 323 322 321 320 321 323 318 323 319 245 170 149 150 162 159 156 97 142 271 125 182 169 230 200 149 157 147 168 150 165 131 195 196 161 153 145 149
339 337 334 331 328 325 322 321 318 319 317 317 317 322 316 262 202 50 161 153 153 154 154 134 91 151 206 219 182 196 239 218 116 140 150 179 146 175 168 208 161 159 158 156 157
337 335 332 328 324 320 317 315 314 313 313 312 312 326 316 37 254 118 131 155 161 143 174 178 166 192 232 203 154 172 203 101 132 155 165 136 180 175 198 120 140 142 158 168 169
336 334 330 327 322 318 314 311 310 308 305 301 303 316 203 255 242 141 132 144 178 156 182 186 202 209 291 267 183 142 169 144 153 167 167 165 166 134 172 137 149 156 168 178 175
334 333 329 325 321 316 313 310 308 302 291 282 277 254 111 234 18 145 149 157 168 177 165 215 169 164 223 278 253 120 79 57 109 171 179 111 74 237 149 150 160 170 175 178 180
333 332 328 325 321 317 313 312 306 293 271 249 228 211 245 246 118 148 171 158 168 215 236 205 162 213 187 318 33 80 53 104 349 29 337 105 266 88 155 157 169 176 182 181 186
330 330 327 325 321 318 317 313 309 285 169 149 146 172 264 315 147 216 164 201 141 184 242 274 191 147 38 97 58 14 168 145 124 0 179 92 194 238 167 173 174 181 188 190 192
330 328 325 325 323 321 321 311 245 111 151 205 257 24 290 274 235 183 204 154 133 71 10 140 59 53 52 90 198 153 118 76 181 286 18 108 210 178 169 173 189 196 194 198 196
330 327 325 324 324 324 337 53 19 11 180 209 197 245 286 279 306 202 154 106 119 92 159 349 86 208 215 214 134 152 110 103 33 298 288 203 202 165 165 166 192 198 220 204 204
328 326 326 323 321 322 284 77 94 238 298 235 235 246 204 79 314 294 124 145 139 212 103 26 209 233 232 201 151 162 127 119 196 226 203 244 241 145 151 167 180 200 200 230 218
327 327 327 323 319 324 293 226 346 247 276 296 202 210 200 146 203 254 134 141 154 143 162 200 215 182 190 251 208 193 148 206 200 157 307 324 287 162 178 147 177 198 205 197 227
322 324 328 327 342 326 281 313 310 190 48 279 258 271 147 154 259 219 177 137 114 179 163 232 218 223 153 245 155 239 176 163 146 167 192 46 284 314 324 242 197 194 207 208 213
321 325 324 322 300 289 287 334 330 59 11 309 218 96 160 151 199 216 176 55 168 179 119 232 160 152 187 220 161 233 153 169 103 119 334 25 53 272 317 283 230 220 210 213 204
317 320 324 141 219 246 314 319 51 46 261 338 95 293 128 183 265 108 129 60 152 129 6 232 209 144 216 174 201 101 70 48 58 53 343 178 138 278 232 216 236 187 205 208 199
317 315 302 212 224 316 300 44 47 131 313 343 332 347 222 187 222 152 160 142 164 114 246 292 252 228 189 163 74 98 83 26 12 10 229 154 134 243 269 248 228 191 201 192 188
322 314 193 215 254 339 48 55 141 258 320 322 287 280 159 133 237 287 118 207 243 123 124 204 303 175 183 180 185 172 155 157 180 191 235 107 216 251 236 249 210 182 192 203 186
322 323 228 268 197 175 73 79 202 202 280 315 328 37 13 346 176 157 190 224 213 173 174 158 262 217 168 176 135 216 207 184 95 346 102 215 283 300 267 242 183 182 172 190 184
325 338 315 308 174 66 74 232 258 226 342 313 319 44 2 302 24 149 196 220 238 189 165 218 288 217 231 140 212 153 171 79 321 135 209 271 267 241 291 251 200 193 200 184 177
16 49 285 211 71 46 114 233 280 277 49 273 250 254 223 240 219 266 226 1 6 330 146 139 131 273 103 178 212 136 187 54 113 130 163 195 257 217 242 211 203 203 211 193 201
1 64 299 50 47 21 66 305 287 321 343 318 235 210 209 213 239 254 337 356 353 279 197 204 152 227 215 262 200 164 222 162 167 233 227 168 256 256 235 244 187 213 205 205 202
50 270 317 66 77 349 319 317 331 348 328 355 314 14 325 275 238 74 340 295 2 35 357 279 246 253 301 347 360 182 206 142 111 80 191 143 257 310 267 247 242 242 218 176 187
46 12 338 34 47 86 4 326 338 334 344 355 357 11 1 17 4 53 354 330 342 345 291 160 99 184 218 223 176 173 183 155 118 110 166 218 238 283 267 232 227 241 239 190 188
24 22 172 336 359 356 318 359 354 353 352 9 10 357 328 24 2 21 335 311 297 265 15 83 92 298 289 254 184 211 181 163 159 204 160 243 193 237 227 240 209 222 232 189 157
58 33 354 313 320 351 359 8 6 342 299 347 24 318 356 96 38 300 358 286 253 329 4 349 313 3 298 183 244 207 185 170 206 163 253 134 242 215 245 197 150 219 217 234 193
330 352 93 310 353 49 39 332 336 354 287 26 320 339 314 313 306 261 245 239 234 270 315 348 41 19 287 350 283 303 210 197 221 182 164 177 224 170 223 212 220 219 194 212 202